    Orbital elements:
    2012 TZ52                                                Earth MOID = 0.1300 AU
    Epoch 2012 Sept. 30.0 TT = JDT 2456200.5                MPC
    M 336.45764              (2000.0)            P               Q
    n   0.48371184     Peri.  202.00380     +0.67109714     -0.72894792
    a   1.6072308      Node   206.44950     +0.71736815     +0.68449834
    e   0.3095166      Incl.   17.66270     +0.18711380     -0.00984663
    P   2.04           H   20.7           G   0.15           U   7
    Residuals in seconds of arc
    121007 J75  0.8-  0.1+    121008 G48  0.3+  0.3+    121009 H36  0.5-  0.8-
    121007 J75  0.5-  0.7-    121008 G48  0.0   0.5-    121009 850  0.3-  0.2-
    121007 J75  0.1+  0.0     121008 G48  0.2+  0.2+    121009 H36  0.5-  0.4-
    121007 J75  0.2+  0.7-    121008 G48  0.5+  0.3+    121009 850  0.0   0.6-
    121007 J75  0.1-  0.1-    121008 G48  0.0   0.3-    121009 850  0.3+  0.4-
    121007 J75  0.1+  0.1+    121008 G48  0.2-  0.3-    121009 850  1.1-  0.1+
    121007 J75  0.0   0.0     121008 G48  0.3-  0.2-    121009 850  0.9-  0.4+
    121007 J75  0.2+  0.3-    121008 G48  0.4+  0.3-    121009 850  0.4-  0.6-
    121007 J75  0.0   0.1-    121008 G48  0.1-  0.6-    121009 850  0.0   0.5-
    121007 A24  0.6+  0.4+    121008 G48  0.3-  0.0     121009 850  0.1-  0.6-
    121007 A24  0.5+  0.3+    121008 G48  0.5+  0.5-    121009 854  0.0   0.5-
    121007 A24  0.8+  0.2+    121008 G48  0.6+  0.1-    121009 854  0.9-  0.0
    121007 A24  0.7+  0.4+    121008 H01  0.6+  0.0     121009 854  1.9-  0.9+
    121007 A24  0.7+  0.6+    121008 H01  0.7+  0.0     121009 C43  1.4-  0.2+
    121008 H21  0.2-  0.1+    121008 H01  0.7+  0.0     121009 C43  0.7-  0.5-
    121008 H21  0.2-  0.2+    121008 H01  0.7+  0.1-    121009 C43  0.2+  0.2-
    121008 H21  0.3-  0.0     121008 C43  0.3+  0.3+    121009 C43  0.5-  0.1+
    121008 H21  0.3-  0.1+    121008 J75  0.1+  0.2-    121010 850  0.5-  0.7-
    121008 H36  0.5-  0.1-    121008 J41  0.1-  0.1+    121010 850  0.8-  0.3+
    121008 H36  0.6-  0.2-    121008 J75  0.6+  0.4-    121010 850  0.6-  0.4-
    121008 H36  0.8-  0.2-    121008 C43  0.1-  0.1+    121010 850  1.4-  0.3-
    121008 H36  0.8-  0.3+    121008 J41  0.1+  0.1+    121010 850  0.6-  1.7+
    121008 H36  0.9-  0.2+    121008 J41  0.2+  0.6+    121010 850  1.8+  1.8-
    121008 G48  0.2-  0.4-    121009 H36  0.3+  0.7+    121010 850  0.3+  0.6-
    121008 G48  0.2-  0.0     121009 H36  0.1-  0.0
    
    Ephemeris:
    2012 TZ52                a,e,i = 1.61, 0.31, 18                  q = 1.1098
    Date    TT    R. A. (2000) Decl.     Delta      r     Elong.  Phase     V
    2012 09 10    22 20 53.8 +39 39 38   0.3343  1.2615   133.8    35.2    20.3
    ...
    2012 09 25    22 23 01.3 +33 51 18   0.2559  1.2074   138.9    33.1    19.5
    ...
    2012 10 03    22 30 10.8 +27 35 31   0.2213  1.1822   141.7    31.6    19.1
    ...
    2012 10 09    22 39 20.5 +21 04 22   0.2002  1.1653   143.2    30.9    18.9
    2012 10 10    22 41 12.9 +19 49 36   0.1972  1.1627   143.3    30.9    18.8
    2012 10 11    22 43 11.6 +18 32 10   0.1943  1.1601   143.4    30.9    18.8
    ...
    2012 10 17    22 57 15.5 +09 56 25   0.1808  1.1458   142.8    31.7    18.6
    ...
    2012 10 25    23 21 47.8 -02 55 13   0.1741  1.1302   138.3    35.9    18.6
    ...
    2012 11 09    00 21 02.1 -23 57 34   0.1963  1.1125   124.1    47.5    19.2
    
    A. U. Tomatic                (C) Copyright 2012 MPC           M.P.E.C. 2012-T37
    

    Read MPEC 2012-T36 Read MPEC 2012-T38


    MPEC number:

    Enter an MPEC number in one of the following forms:

    • 1997-B01 (the full form)
    • J97B01 (the packed version of the full form)
    • B01 (the abbreviated form)